Regional Weather Roundup
Issued by NWS

Home | Current Version | Previous Version | Graphics & Text | Print | Product List | Glossary On
Versions: 1 2 3 4 5 6 7 8 9 10 11 12 13 14 15 16 17 18 19 20 21 22 23 24 25 26 27
000
ASUS45 KPSR 260110
RWRAZ

ARIZONA HOURLY REGIONAL WEATHER ROUNDUP
NATIONAL WEATHER SERVICE PHOENIX AZ
600 PM MST WED MAY 25 2016

NOTE: FAIR INDICATES FEW OR NO CLOUDS BELOW 12,000 FEET WITH NO
SIGNIFICANT WEATHER AND/OR OBSTRUCTIONS TO VISIBILITY.

AZZ001>003-036-260200-
NORTHWEST ARIZONA

CITY           SKY/WX    TMP DP  RH WIND       PRES   REMARKS
BULLHEAD CITY  SUNNY     84  18   8 S10G20    29.82F
KINGMAN        MOSUNNY   74  17  11 SW24G31   29.91F
$$

AZZ004>008-015-016-018-260200-
NORTH CENTRAL ARIZONA

CITY           SKY/WX    TMP DP  RH WIND       PRES   REMARKS
GRAND CANYON   MOSUNNY   64  15  15 SW15G24   30.03F
WILLIAMS       MOSUNNY   61  16  17 S14G22    30.12S
PRESCOTT       SUNNY     67  21  17 S16G24    30.00F
FLAGSTAFF      SUNNY     58  12  16 SW22G30   30.08F
PAYSON         SUNNY     68  18  14 SW10G23   30.03F
PAGE           MOSUNNY   76  14   9 VRB5      29.87F
$$

AZZ009>014-017-260200-
NORTHEAST ARIZONA

CITY           SKY/WX    TMP DP  RH WIND       PRES   REMARKS
WINSLOW        SUNNY     73  15  11 SW22G31   29.98S
SAINT JOHNS    SUNNY     72  17  12 W24G32    29.98F
SHOW LOW       SUNNY     64  18  16 SW20G29   30.07S
$$

AZZ023-260200-
GREATER PHOENIX AREA

CITY           SKY/WX    TMP DP  RH WIND       PRES   REMARKS
PHOENIX        MOSUNNY   87  22   9 W17G25    29.79S
BUCKEYE        SUNNY     84  32  15 SW13G20   29.83S
GLENDALE       MOSUNNY   88  21   8 S18G28    29.82F
LUKE AFB       SUNNY     87  24  10 SW23      29.79F
DEER VALLEY    SUNNY     85  24  11 SW20G26   29.82S
SCOTTSDALE     SUNNY     86  22   9 W17G24    29.83F
MESA-GATEWAY   MOSUNNY   88  18   7 SW16      29.83F
CHANDLER       MOSUNNY   88  10   5 S18       29.81F
$$

AZZ027-028-260200-
SOUTHWEST MARICOPA COUNTY AND PINAL COUNTY

CITY           SKY/WX    TMP DP  RH WIND       PRES   REMARKS
CASA GRANDE    SUNNY     86  25  10 S14G25    29.86R
GILA BEND      MOSUNNY   85  34  16 S18       29.82F
$$

AZZ503-504-507>509-260200-
SOUTHEAST ARIZONA

CITY           SKY/WX    TMP DP  RH WIND       PRES   REMARKS
TUCSON         SUNNY     84  20   9 SW17G31   29.92S
DAVIS-MONTHAN  SUNNY     84  20   9 W18G26    29.90F
RYAN FIELD     SUNNY     84  19   9 SW23G31   29.92S
NOGALES        SUNNY     79  21  11 SW22G32   29.99S
SIERRA VISTA   SUNNY     77  14   9 SW23      30.02F
DOUGLAS        SUNNY     92  20   7 SW29G38   29.99S
SAFFORD        SUNNY     87  16   7 W15G22    29.86F
$$

AZZ020-021-025-026-031-260200-
SOUTHWEST ARIZONA

CITY           SKY/WX    TMP DP  RH WIND       PRES   REMARKS
YUMA           MOSUNNY   81  38  21 W15G23    29.86F
$$

CAZ031-033-041-043-047-048-061-260200-
SOUTHERN CALIFORNIA

CITY           SKY/WX    TMP DP  RH WIND       PRES   REMARKS
DOWNTOWN L.A.  SUNNY     67  49  52 VRB6      30.06R
L.A. AIRPORT   MOSUNNY   64  52  64 W13       30.07S
SAN DIEGO      PTSUNNY   67  51  56 NW13      30.10F
BURBANK        SUNNY     65  43  44 S10       30.05S
ONTARIO        PTSUNNY   65  41  41 W12       30.05S
RIVERSIDE      CLOUDY    67  41  38 W15       30.04S
PALM SPRINGS   MOSUNNY   77  37  23 W21G32    29.89S
EL CENTRO NAS  MOSUNNY   76  38  25 W29G36    29.92S
IMPERIAL       SUNNY     76  40  27 W26G35    29.89S
BLYTHE         SUNNY     82  33  17 SW23G29   29.84S
NEEDLES        SUNNY     85  20   9 SW9G20    29.81F
$$

NVZ020-UTZ003-260200-
SOUTHERN NEVADA-UTAH

CITY           SKY/WX    TMP DP  RH WIND       PRES   REMARKS
LAS VEGAS      MOSUNNY   75  31  19 W23       29.81S
SALT LAKE CITY PTSUNNY   65  36  34 W8        29.99R
$$

NMZ009-TXZ055-260200-
NEW MEXICO-WEST TEXAS

CITY           SKY/WX    TMP DP  RH WIND       PRES   REMARKS
ALBUQUERQUE    PTSUNNY   79  14   8 SW18G26   29.94F
EL PASO        MOSUNNY   89   9   5 W28G35    29.92S
$$


........................KEY........................
SKY/WX - SKY CONDITION/WEATHER
TMP    - TEMPERATURE IN FAHRENHEIT
DP     - DEW POINT IN FAHRENHEIT
RH     - RELATIVE HUMIDITY IN PERCENT
WIND   - DIRECTION AND SPEED IN MILES PER HOUR (MPH)
VRB    - VARIABLE WIND DIRECTION
PRES   - MEAN SEA LEVEL PRESSURE IN INCHES OF MERCURY
         F - FALLING PRESSURE   R - RISING PRESSURE
         S - STEADY PRESSURE
VSB    - VISIBILITY IN MILES
HX     - HEAT INDEX IN FAHRENHEIT
WCI    - WIND CHILL INDEX IN FAHRENHEIT
TC     - TEMPERATURE IN CELSIUS WHICH IS ALSO KNOWN AS
         TEMPERATURE IN CENTIGRADE
AFB    - AIR FORCE BASE
         LUKE AFB IS LUKE AIR FORCE BASE
         DAVIS-MONTHAN IS DAVIS-MONTHAN AIR FORCE BASE
NAS    - NAVAL AIR STATION
         EL CENTRO NAS IS EL CENTRO NAVAL AIR STATION
N/A    - NOT AVAILABLE





USA.gov is the U.S. government's official web portal to all federal, state and local government web resources and services.